TimePST,TemperatureF,Dew PointF,Humidity,Sea Level PressureIn,VisibilityMPH,Wind Direction,Wind SpeedMPH,Gust SpeedMPH,PrecipitationIn,Events,Conditions,WindDirDegrees,DateUTC
12:53 AM,60.1,52.0,75,30.05,10.0,Calm,Calm,-,N/A,,Clear,0,2012-11-06 08:53:00
1:53 AM,57.9,52.0,81,30.05,10.0,Calm,Calm,-,N/A,,Clear,0,2012-11-06 09:53:00
2:53 AM,57.0,51.1,81,30.05,10.0,Calm,Calm,-,N/A,,Clear,0,2012-11-06 10:53:00
3:53 AM,54.0,50.0,86,30.05,10.0,Calm,Calm,-,N/A,,Clear,0,2012-11-06 11:53:00
4:53 AM,55.0,48.0,77,30.06,10.0,Calm,Calm,-,N/A,,Clear,0,2012-11-06 12:53:00
5:53 AM,54.0,46.9,77,30.06,10.0,Calm,Calm,-,N/A,,Clear,0,2012-11-06 13:53:00
6:53 AM,53.1,46.0,77,30.07,10.0,Calm,Calm,-,N/A,,Clear,0,2012-11-06 14:53:00
7:53 AM,57.9,46.9,67,30.09,10.0,Calm,Calm,-,N/A,,Clear,0,2012-11-06 15:53:00
8:53 AM,62.1,50.0,65,30.08,10.0,Calm,Calm,-,N/A,,Clear,0,2012-11-06 16:53:00
9:53 AM,66.9,52.0,59,30.07,10.0,Calm,Calm,-,N/A,,Clear,0,2012-11-06 17:53:00
10:53 AM,73.0,52.0,48,30.06,10.0,Calm,Calm,-,N/A,,Clear,0,2012-11-06 18:53:00
11:53 AM,78.1,51.1,39,30.03,10.0,Variable,5.8,-,N/A,,Clear,0,2012-11-06 19:53:00
12:53 PM,80.1,48.0,32,30.01,10.0,NW,6.9,-,N/A,,Clear,310,2012-11-06 20:53:00
1:53 PM,80.1,51.1,36,30.00,10.0,NW,6.9,-,N/A,,Clear,320,2012-11-06 21:53:00
2:53 PM,79.0,52.0,39,30.00,10.0,NW,8.1,-,N/A,,Clear,310,2012-11-06 22:53:00
3:53 PM,77.0,55.9,48,30.00,10.0,WNW,6.9,-,N/A,,Clear,300,2012-11-06 23:53:00
4:53 PM,75.0,53.1,46,29.99,10.0,West,3.5,-,N/A,,Clear,270,2012-11-07 00:53:00
5:53 PM,71.1,52.0,51,30.00,10.0,West,3.5,-,N/A,,Clear,260,2012-11-07 01:53:00
6:53 PM,71.1,53.1,53,30.01,10.0,Calm,Calm,-,N/A,,Clear,0,2012-11-07 02:53:00
7:53 PM,70.0,54.0,57,30.02,9.0,West,3.5,-,N/A,,Clear,270,2012-11-07 03:53:00
8:53 PM,66.0,55.0,68,30.03,10.0,Calm,Calm,-,N/A,,Clear,0,2012-11-07 04:53:00
9:53 PM,64.0,55.9,75,30.04,10.0,South,3.5,-,N/A,,Clear,170,2012-11-07 05:53:00
10:53 PM,62.1,55.0,78,30.04,10.0,Calm,Calm,-,N/A,,Clear,0,2012-11-07 06:53:00
11:53 PM,60.1,54.0,80,30.04,10.0,Calm,Calm,-,N/A,,Clear,0,2012-11-07 07:53:00